SCP
0 0 0 0 0 0 0 0 0 0 0 0 0 0 0 0 0 0 0 0 0 0 0 0 0 0 0 0 0 0 0 0 0 0 0 0 0 0 0 0 0 0 0
0 0 0 0 0 0 0 0 0 0 0 0 0 0 0 0 0 0 0 0 0 0 0 0 0 0 0 0 0 0 0 0 0 0 0 0 0 0 0 -0 0 0 0
0 0 0 0 0 0 0 0 0 0 0 0 0 0 0 0 0 0 0 0 0 0 0 0 0 0 0 0 0 0 0 0 0 0 0 0 0 0 -0 -0 0 0 0
0 0 0 0 0 0 0 0 0 0 0 0 0 0 0 0 0 0 0 0 0 0 0 0 0 0 0 0 0 0 0 0 0 0 0 0 0 0 0 0 0 0 0
0 0 0 0 0 0 0 0 -0 0 0 0 0 0 0 0 0 0 0 0 0 0 0 0 0 0 0 0 0 0 0 0 0 0 0 0 0 0 0 0 0 0 0
0 0 0 0 0 0 0 0 0 0 0 0 0 0 0 0 0 0 0 0 0 0 0 0 0 0 0 0 0 0 0 0 0 0 0 0 0 0 0 0 0 0 0
0 0 0 0 0 0 0 0 0 0 0 0 0 0 0 0 0 0 0 0 0 0 0 0 0 0 0 0 0 0 0 0 0 0 0 0 0 0 0 0 0 0 0
0 0 0 0 0 0 0 0 0 0 0 0 0 0 0 0 0 0 0 0 0 0 0 0 0 0 0 0 0 0 0 0 0 0 0 0 0 0 0 0 0 0 0
0 0 0 0 0 0 0 0 0 0 0 0 0 0 0 0 0 0 0 0 0 0 0 0 0 0 0 0 0 0 0 0 0 0 0 0 0 0 0 0 0 0 0
0 0 0 0 0 0 0 0 0 0 0 0 0 0 0 0 0 0 0 0 0 0 0 0 0 0 0 0 0 0 0 0 0 0 0 0 0 0 0 0 0 0 0
0 0 0 0 0 0 0 0 0 0 0 0 0 0 0 0 0 0 0 0 0 0 0 0 0 0 0 0 0 0 0 0 0 0 0 0 0 0 0 0 0 0 0
0 0 0 0 0 0 0 0 0 0 0 0 0 0 0 0 0 0 0 0 0 0 0 0 0 0 0 0 0 0 0 0 0 0 0 0 0 0 0 0 0 0 0
0 0 0 0 0 0 0 0 0 0 0 0 0 0 0 0 0 0 0 0 0 0 0 0 0 0 0 0 0 0 0 0 0 0 0 0 0 0 0 0 0 0 0
0 0 0 0 0 0 0 0 0 0 0 0 0 0 0 0 0 0 0 0 0 0 0 0 0 0 0 0 0 0 0 0 0 0 0 0 0 0 0 0 0 0 0
0 0 0 0 0 0 0 0 0 0 0 0 0 0 0 0 0 0 0 0 0 0 0 0 0 0 0 0 0 0 0 0 0 0 0 0 0 0 0 0 0 0 0
0 0 0 0 0 0 0 0 0 0 0 0 0 0 0 0 0 0 0 0 0 0 0 0 0 0 0 0 0 0 0 0 0 0 0 0 0 0 0 0 0 0 0
0 0 0 0 0 0 0 0 0 0 0 -0 0 0 0 0 0 0 0 0 0 0 0 0 0 0 0 0 0 0 0 0 0 0 0 0 0 0 0 0 0 0 0
0 0 0 0 0 0 0 0 0 0 0 0 0 0 0 0 0 0 0 0 0 0 0 0 0 0 0 0 0 0 0 0 0 0 0 0 0 0 0 0 0 0 -0
0 0 0 0 0 0 0 0 0 0 0 0 0 0 0 0 0 0 0 0 0 0 0 0 0 0 0 0 0 0 0 0 0 0 0 0 0 0 0 0 0 0 -0
0 0 0 0 0 0 0 0 0 0 0 0 0 0 0 0 0 0 0 0 0 0 0 0 0 0 0 0 0 0 0 0 0 0 0 0 0 0 0 0 0 0 -0
-0 0 0 0 0 0 0 0 0 0 0 0 0 0 0 0 0 0 0 0 0 0 0 0 0 0 0 0 0 0 0 0 0 0 0 0 0 0 0 0 0 0 0
0 0 0 0 0 0 0 0 0 0 0 0 0 0 0 0 0 -0 -0 -0 -0 0 -0 0 0 0 0 0 0 0 0 0 0 0 0 0 0 0 0 0 0 0 0
0 0 0 0 0 0 0 0 0 0 0 0 0 0 0 0 0 0 -0 -0 0 0 0 0 0 0 -0 0 0 0 0 0 0 0 0 0 0 0 0 0 0 0 0
0 0 0 0 0 0 0 0 0 0 0 0 0 0 0 0 0 0 0 0 0 0 0 0 0 0 0 0 0 0 0 0 0 0 0 0 0 0 0 0 0 0 0
0 0 0 0 0 0 0 0 0 0 0 0 0 0 0 0 0 0 0 0 0 0 0 0 0 0 0 0 0 0 0 -0 -0 -0 0 0 0 0 0 0 0 0 0
0 0 0 0 0 0 0 0 0 0 0 0 0 0 0 0 0 0 0 0 0 0 0 0 0 0 0 0 0 0 0 -0 -0 -0 0 0 0 0 0 0 0 0 0
Wind_Speed
9 8 8 7 7 6 5 5 3 2 1 0 2 2 3 3 3 3 3 4 4 4 4 5 5 4 3 3 3 3 3 3 3 2 1 1 1 1 1 1 2 3 4
8 8 8 8 7 7 6 5 4 4 2 1 1 1 2 2 2 3 3 4 4 4 4 4 4 3 4 3 3 3 3 3 3 2 1 1 1 1 1 1 2 2 3
7 8 8 8 8 8 8 7 6 5 5 4 3 2 2 2 2 2 2 3 3 4 4 5 4 4 4 3 3 3 2 2 2 2 1 1 1 1 1 1 1 1 3
7 8 8 8 8 7 7 7 7 6 5 5 4 3 3 3 2 1 1 2 2 2 3 4 4 5 5 4 3 3 3 2 2 1 0 1 1 1 0 1 2 1 2
7 8 8 7 7 7 7 7 6 7 6 5 4 4 3 3 2 2 2 3 3 2 2 2 3 5 6 5 4 3 3 2 2 1 0 0 1 1 1 1 1 2 2
7 7 7 7 8 8 7 7 7 7 6 6 6 5 5 5 7 6 4 3 3 3 3 2 2 3 4 5 6 6 6 4 3 2 1 1 1 1 1 1 0 1 2
6 6 7 7 7 7 7 7 7 6 6 7 6 6 5 6 9 8 6 4 4 3 3 3 3 3 4 4 4 5 4 4 5 4 2 1 1 1 1 0 0 1 2
5 6 6 7 7 7 7 7 7 5 5 5 6 6 5 7 10 8 7 5 4 4 3 4 4 3 3 5 5 4 3 2 2 2 2 1 1 1 1 1 1 0 1
5 5 5 5 6 7 7 7 5 5 6 5 5 6 6 7 11 10 7 4 5 5 4 4 4 4 5 8 6 5 4 3 2 3 3 2 3 3 2 2 2 2 2
4 4 4 4 5 6 6 5 5 5 5 5 6 6 7 7 11 11 8 4 5 4 4 5 6 6 7 8 6 5 4 2 3 4 5 5 5 5 6 3 1 1 1
2 3 4 4 5 5 5 5 5 5 6 6 7 7 7 8 10 12 9 4 4 4 4 3 4 8 8 8 6 4 4 4 4 4 4 4 4 4 4 3 2 2 2
3 4 4 5 5 5 6 6 6 6 6 6 6 6 6 7 9 9 11 8 6 5 4 3 4 9 9 8 6 6 8 7 4 4 4 3 3 3 3 3 3 3 2
3 4 3 5 5 5 6 6 5 6 5 5 5 5 5 5 7 11 10 9 8 5 4 7 9 10 9 7 10 10 8 5 4 4 3 2 2 2 2 3 4 4 5
3 2 3 4 4 5 5 4 5 5 5 5 5 4 4 4 5 5 4 4 7 6 5 8 11 12 9 8 8 7 5 4 4 3 2 2 2 3 3 3 3 3 4
3 2 2 2 3 3 4 4 4 3 3 3 2 2 3 4 5 6 4 3 3 4 5 5 5 5 5 5 5 5 4 4 4 3 3 3 3 3 3 3 3 3 3
2 1 1 1 1 1 2 3 5 4 7 7 6 4 3 4 6 9 11 10 9 9 7 5 5 5 4 4 4 4 4 4 3 3 3 3 3 3 3 3 3 3 3
2 1 1 1 1 1 1 1 2 4 6 8 9 9 8 8 9 10 11 12 11 10 7 5 4 4 4 4 3 3 3 3 3 3 3 3 3 3 3 3 3 3 3
2 1 2 1 1 1 1 1 1 2 2 3 6 9 10 11 10 10 9 9 8 7 5 4 4 3 3 3 3 3 3 3 3 3 3 3 3 3 3 3 3 2 2
1 1 1 1 1 1 2 2 2 2 2 2 3 4 7 8 10 11 8 5 5 4 4 4 3 3 3 3 3 3 3 3 3 3 3 3 3 3 3 2 2 4 3
1 1 2 1 1 2 2 3 2 2 2 2 2 2 2 4 4 4 4 4 4 3 3 3 3 3 3 3 3 3 3 3 3 3 3 2 2 2 3 3 2 2 2
1 1 1 1 1 2 2 3 3 3 2 1 0 0 3 3 2 2 2 2 2 2 2 2 2 3 3 3 3 3 4 3 2 2 2 2 2 2 2 2 3 3 2
1 1 1 1 2 2 2 3 3 3 3 3 1 1 4 3 2 2 2 2 1 1 2 2 2 2 2 2 2 3 3 3 2 2 2 2 2 2 2 2 3 2 2
1 2 2 2 2 3 3 3 3 3 3 3 3 2 2 2 2 2 2 2 2 2 2 2 3 2 2 2 2 2 2 2 1 1 1 2 2 2 2 2 3 3 3
1 2 3 2 2 3 3 3 3 4 4 4 4 3 3 3 3 3 3 2 2 2 2 2 2 4 4 3 2 2 1 1 0 0 1 2 2 2 2 2 3 3 3
1 2 3 3 3 3 3 3 4 4 4 4 4 4 4 4 3 3 3 3 3 3 3 3 2 3 4 4 3 1 1 2 1 1 2 2 3 3 3 3 2 2 2
2 2 3 3 3 4 4 4 4 4 4 4 4 5 5 5 4 4 4 4 3 3 3 3 4 4 5 3 3 2 2 1 2 2 2 2 3 3 3 3 3 3 3
Wind_Direction
11 15 20 17 20 26 28 17 2 346 5 135 191 203 201 192 189 181 190 189 189 188 178 184 195 183 176 176 171 170 177 167 197 250 262 273 269 279 278 233 229 233 244
8 14 18 17 20 24 22 15 17 19 14 35 81 175 181 169 160 165 182 181 179 182 185 180 186 173 171 171 168 173 179 177 180 217 266 280 259 261 264 263 255 240 243
10 17 18 16 18 20 19 19 20 25 27 30 50 58 60 66 101 153 174 171 177 181 178 171 170 160 168 167 166 165 170 168 162 175 238 284 300 316 326 306 296 295 272
16 22 19 12 11 13 19 21 22 26 36 32 35 46 55 59 64 110 159 158 156 155 157 158 160 164 167 159 155 156 149 134 132 143 189 299 299 311 20 312 321 312 294
19 22 16 12 16 17 20 21 26 31 38 40 49 50 48 60 59 84 105 112 114 111 106 127 152 164 164 158 153 152 140 127 121 120 123 10 322 322 289 270 281 309 303
22 19 14 17 22 21 19 21 30 35 39 48 54 60 54 48 54 68 81 93 102 114 116 107 115 129 152 145 146 148 142 138 140 133 140 179 265 261 269 252 255 4 319
22 17 17 19 20 17 21 27 30 33 41 50 50 54 55 42 49 57 70 95 104 115 123 117 107 108 116 115 115 110 110 126 142 148 151 196 223 235 223 265 226 223 264
24 19 17 20 20 16 21 24 23 30 40 44 45 41 42 37 44 54 69 79 84 85 102 121 122 112 121 126 114 99 82 74 108 123 155 198 218 216 193 189 196 253 313
22 20 17 21 22 22 23 17 19 32 37 38 38 40 41 28 35 49 69 76 77 67 70 88 110 108 116 121 114 108 84 44 63 93 96 78 64 71 99 81 54 50 16
12 18 19 25 29 26 21 18 21 33 38 41 41 37 38 31 31 47 65 81 82 70 60 66 81 97 106 112 114 116 107 76 72 69 56 46 43 45 54 63 89 86 68
20 31 26 25 34 30 27 25 28 34 38 39 40 35 33 28 27 41 56 77 94 90 79 67 68 88 94 97 100 105 115 114 91 85 70 50 39 35 31 33 44 89 98
50 48 37 30 34 38 36 30 30 33 41 35 35 31 24 20 23 33 50 66 85 96 93 81 79 88 89 87 85 90 96 95 88 80 69 51 39 24 14 22 35 45 66
70 58 49 47 41 38 40 34 30 31 39 34 34 34 21 15 17 29 42 60 75 80 83 91 88 83 76 69 72 79 83 87 87 82 73 49 21 9 17 25 29 42 44
90 70 65 65 50 38 37 37 41 34 34 36 34 29 19 17 14 10 19 46 64 71 73 77 76 73 69 63 59 57 59 75 91 90 81 48 25 30 30 28 37 35 44
90 78 77 78 72 50 43 36 37 32 31 43 30 20 23 21 2 16 47 58 68 85 86 71 64 62 61 54 51 50 51 58 64 61 68 60 45 40 29 26 42 50 57
101 92 102 114 108 84 60 37 32 38 39 43 42 41 24 33 43 56 62 69 75 87 84 80 76 72 71 67 65 56 49 52 55 64 64 62 58 52 42 35 46 59 61
127 134 122 128 139 149 122 74 42 15 25 33 34 40 50 55 65 68 68 68 66 76 79 77 75 73 71 67 65 65 55 46 55 64 65 59 58 55 54 48 49 55 53
118 127 131 144 151 160 160 132 106 81 36 7 11 32 48 57 63 67 72 72 59 55 68 76 74 70 70 69 66 64 60 53 53 56 56 52 53 62 61 56 56 66 59
127 131 122 125 129 128 123 111 103 97 80 38 16 19 35 54 57 54 60 72 80 70 65 67 68 68 67 69 69 69 68 62 58 57 53 50 50 64 66 61 63 62 61
193 187 148 139 118 108 112 118 115 111 101 75 50 22 20 51 53 41 46 65 77 79 76 75 67 66 70 75 80 77 70 62 57 55 47 44 47 65 76 73 73 72 62
223 231 163 127 145 148 140 142 143 140 140 136 121 101 122 99 92 79 70 71 86 96 98 92 82 73 73 79 86 85 83 69 57 52 46 43 52 60 64 74 78 77 73
205 216 194 183 179 167 160 157 158 160 163 157 152 116 116 106 113 109 102 98 98 107 119 114 99 87 96 106 110 104 92 74 49 40 44 50 61 68 73 76 76 71 72
214 218 209 203 194 182 168 167 171 175 178 178 171 164 154 146 147 145 147 144 127 116 114 115 113 100 87 84 94 112 117 107 47 40 74 71 70 75 87 89 90 87 78
221 209 203 205 198 191 191 192 189 187 186 184 183 184 183 179 175 171 166 157 145 138 133 129 135 140 133 116 92 85 102 130 59 69 94 108 99 94 97 95 91 97 94
242 223 211 208 204 202 206 204 199 194 192 190 189 188 188 184 183 181 175 169 162 161 160 150 142 143 148 144 140 137 114 83 79 119 101 105 109 110 111 111 107 97 98
257 241 225 216 210 206 204 208 210 204 199 198 194 190 188 189 190 186 180 175 173 174 169 166 170 164 159 156 158 153 123 69 65 110 126 114 115 122 124 117 116 106 107